Volver al catálogo

STARLINK-35619

ActivoComunicacionesVLEO
NORAD 66256·PAYLOAD·🇺🇸 United States

Lanzado Oct 29, 2025 desde Cape Canaveral Space Force Station

Loading…

Próximos Pases (próximas 24 horas)

TLE

ActualizadoSource: CelesTrak SupGP

Época: Sep 15, 2026, 02:56 UTC

1 66256C 25245Y   26258.12270833  .00034907  00000+0  10314-2 0  2583
2 66256  53.1587 122.5285 0001307  85.0701 153.8155 15.34371186    11

Sigue STARLINK-35619 en tiempo real con AllMySat

Download on the App Store